Regional Weather Roundup
Issued by NWS

Home | Current Version | Previous Version | Graphics & Text | Print | Product List | Glossary Off
Versions: 1 2 3 4 5 6 7 8 9 10 11 12 13 14 15 16 17 18 19 20 21 22 23 24 25 26 27 28 29 30 31 32 33 34 35 36 37 38 39 40 41 42 43 44 45 46 47 48 49 50

000
ASUS43 KTOP 011908
RWRKS

WEATHER ROUNDUP FOR KANSAS
NATIONAL WEATHER SERVICE GOODLAND KS
100 PM CST SUN FEB 01 2015

NOTE:  "FAIR" INDICATES FEW OR NO CLOUDS BELOW 12,000 FEET WITH NO
SIGNIFICANT WEATHER AND/OR OBSTRUCTIONS TO VISIBILITY.

KSZ001>006-013>018-027>032-041>047-012000-
NORTHWEST KANSAS

CITY           SKY/WX    TMP DP  RH WIND       PRES   REMARKS
GOODLAND       FLURRIES  17   9  70 N32G40    30.21F WCI  -3
HAYS           CLOUDY    19   7  58 N28G39    30.19S WCI   1
HILL CITY      CLOUDY    18  10  71 N28G38    30.25R WCI  -1
RUSSELL        FLURRIES  19  13  77 NW30G43   30.15F WCI   0
$$

KSZ061>065-074>080-084>089-012000-
SOUTHWEST KANSAS

CITY           SKY/WX    TMP DP  RH WIND       PRES   REMARKS
DODGE CITY     SUNNY     26  14  60 N25G38    30.16F WCI  11
ELKHART          N/A     31  13  47 N16         N/A  WCI  20
GARDEN CITY    SUNNY     26  12  55 N31G40    30.19S WCI   9
LIBERAL        MOSUNNY   32  19  59 N24       30.22S WCI  19
PRATT          MOSUNNY   28  19  69 N30G43    30.13S WCI  13
$$

KSZ066>073-081>083-090>101-012000-
SOUTHEAST KANSAS

CITY           SKY/WX    TMP DP  RH WIND       PRES   REMARKS
CHANUTE        CLOUDY    29  22  75 NW24G35   29.95R WCI  15
COFFEYVILLE    CLOUDY    30  22  72 NW26G38   29.98R WCI  16
HUTCHINSON     FLURRIES  23  13  65 NW28      30.11R WCI   6
MEDICINE LODGE   N/A     30  19  63 NW29G41   30.13R WCI  15
NEWTON         CLOUDY    21   9  58 NW36G43   30.06R WCI   2
PARSONS        CLOUDY    30  22  72 NW24G37   29.97R WCI  16
WICHITA INTL   CLOUDY    25  14  63 N28G36    30.09R WCI   9
WICHITA JABRA  FLURRIES  22  21  96 NW32G39   30.07R WCI   3
WICHITA MCCONL MIX PCPN  23  14  68 N26G36    30.07R WCI   7
WINFIELD       CLOUDY    26  18  71 NW23G39   30.08R WCI  11
$$

KSZ007>012-019>026-033>040-048>060-102>105-012000-
NORTHEAST KANSAS

CITY           SKY/WX    TMP DP  RH WIND       PRES   REMARKS
CONCORDIA      CLOUDY    14   8  77 N22G44    30.14R BLWGSNOWWCI  -4
EMPORIA        MIX PCPN  21  16  81 NW29G38   29.99R WCI   3
LAWRENCE       CLOUDY    26  22  84 NW32G44   29.91S WCI   9
MANHATTAN      LGT SNOW  17  11  77 NW16G29   30.10R WCI   2
MARYSVILLE     SNOW      14  12  92 N17G26    30.05R VSB 1/2 WCI  -3
OLATHE IND     MIX PCPN  27  23  85 NW26G36   29.86S WCI  12
OLATHE EXE     MIX PCPN  28  23  81 NW22G33   29.84R WCI  14
SALINA         LGT SNOW  19  12  74 NW35G45   30.14S VSB 1   WCI  -1
TOPEKA BILLARD LGT SNOW  24  18  77 NW26G36   29.98R WCI   8
TOPEKA FORBES  LGT SNOW  25  19  78 NW32G41   29.93S WCI   8
$$


USA.gov is the U.S. government's official web portal to all federal, state and local government web resources and services.